[[{"header":{"parameterUnit":"m.s-1","parameterCategory":1,"la1":30.2991,"la2":30.254,"lo1":-89.0895,"lo2":-89.0444,"dy":0.0017,"dx":0.0017,"nx":28,"ny":28,"refTime":"2026-01-08T03:00:00:Z","depth":0,"parameterNumber":2,"parameterNumberName":"U-component_of_WINDS"},"data":[0,0,0,0,0,0,0,0,0,0,0,0,0,0,0,0,0,0,0,0,0,0,0,0,0,0,0,0,0,0,0,0,0,0,0,0,0,0,0,0,0,0,0,0,0,0,0,0,0,0,0,0,0,0,0,0,0,0,-3.0401,-3.0402,0,-3.0524,-3.0525,-3.0526,-3.057,-3.057,-3.057,-3.0569,-3.0696,-3.07,-3.0704,0,0,0,0,0,0,0,0,0,0,0,0,0,-3.0206,-3.0209,-3.0401,-3.0403,-3.0404,-3.0523,-3.0525,-3.0527,-3.0571,-3.057,-3.057,-3.0569,-3.0695,-3.0699,-3.0704,0,0,0,0,0,0,0,0,0,0,0,0,0,-3.0306,-3.0211,-3.0401,-3.044,-3.0445,-3.0523,-3.0525,-3.0527,-3.0571,-3.057,-3.0569,-3.0569,-3.0693,-3.0699,-3.0704,-3.0753,0,0,-3.0722,-3.0724,0,0,0,0,0,0,0,0,-3.03,-3.0313,-3.0433,-3.0438,-3.0443,-3.0531,-3.0503,-3.0603,-3.0571,-3.0523,-3.0569,-3.0568,-3.0642,-3.0652,-3.0676,-3.0759,-3.0764,-3.0722,-3.0726,-3.0728,-3.073,0,0,0,0,0,0,0,-3.0293,-3.0308,-3.045,-3.0435,-3.0441,-3.0452,-3.0466,-3.0522,-3.0585,-3.0527,-3.0531,-3.0544,-3.0644,-3.0671,-3.0679,-3.0766,-3.0722,-3.0727,-3.0731,-3.0733,-3.0894,-3.0895,0,0,0,0,0,0,-3.028,-3.0302,-3.0446,-3.0453,-3.0369,-3.0456,-3.0471,-3.0504,-3.0584,-3.0596,-3.0545,-3.0546,-3.0661,-3.0673,-3.0684,-3.0745,-3.0728,-3.0734,-3.0737,-3.0893,-3.0894,-3.0895,0,0,0,0,0,0,-3.0275,-3.0292,-3.0441,-3.0379,-3.0398,-3.046,-3.0496,-3.0506,-3.0532,-3.0598,-3.0609,-3.056,-3.0661,-3.0676,-3.0735,-3.075,-3.0736,-3.0741,-3.0892,-3.0894,-3.0895,-3.0869,0,0,0,0,0,0,-3.0269,-3.029,-3.0309,-3.0379,-3.0402,-3.0489,-3.0497,-3.0509,-3.0542,-3.0545,-3.0615,-3.0626,-3.0662,-3.0726,-3.0741,-3.0758,-3.0746,-3.0891,-3.0893,-3.0894,-3.0868,-3.0869,-3.0869,0,0,0,0,0,-3.0262,-3.0297,-3.0309,-3.0326,-3.0426,-3.049,-3.0503,-3.0544,-3.0543,-3.0562,-3.0604,-3.0623,-3.0747,-3.0732,-3.0749,-3.0768,-3.089,-3.0892,-3.0894,-3.0868,-3.0869,-3.0869,0,0,0,0,0,0,-3.0228,-3.0307,-3.0322,-3.038,-3.0428,-3.0497,-3.0523,-3.0543,-3.0593,-3.0593,-3.0642,-3.0657,-3.0712,-3.0746,-3.0729,-3.0819,-3.082,-3.0825,-3.0794,-3.0795,-3.0796,-3.0786,-3.075,0,0,0,0,0,-3.0226,-3.0271,-3.0338,-3.0383,-3.0407,-3.046,-3.049,-3.0517,-3.0569,-3.0589,-3.0636,-3.0686,-3.0736,-3.0768,-3.0817,-3.0874,-3.089,-3.0895,-3.0896,-3.0896,-3.0899,-3.0932,-3.0935,-3.0902,-3.0902,-3.0902,0,0,-3.0225,-3.0274,-3.0299,-3.0377,-3.0418,-3.0463,-3.0477,-3.0525,-3.056,-3.0597,-3.0655,-3.0691,-3.075,-3.0808,-3.0836,-3.0838,-3.0912,-3.0898,-3.0898,-3.0902,-3.0934,-3.0937,-3.094,-3.0903,-3.0903,-3.0902,0,0,-3.0245,-3.0287,-3.0329,-3.0369,-3.0429,-3.0465,-3.0475,-3.0542,-3.0567,-3.0626,-3.0655,-3.0697,-3.0782,-3.0823,-3.0855,-3.0891,-3.091,-3.0906,-3.0908,-3.0938,-3.0941,-3.0944,-3.0956,-3.096,-3.0909,-3.0909,-3.0909,0,-3.0236,-3.0305,-3.0348,-3.0394,-3.0427,-3.0463,-3.0505,-3.0543,-3.0617,-3.0639,-3.0641,-3.0748,-3.079,-3.0858,-3.0867,-3.0892,-3.0905,-3.0897,-3.0937,-3.094,-3.0943,-3.0955,-3.096,-3.0908,-3.0908,-3.0909,-3.0909,0,-3.029,-3.0338,-3.0365,-3.0434,-3.0471,-3.0515,-3.0564,-3.0597,-3.0621,-3.0656,-3.0716,-3.0768,-3.0829,-3.0847,-3.0871,-3.0918,-3.0918,-3.0928,-3.0929,-3.0945,-3.0957,-3.0962,-3.0907,-3.0907,-3.0908,-3.0908,0,0,-3.0292,-3.0384,-3.0393,-3.0425,-3.0495,-3.0533,-3.0579,-3.0638,-3.0664,-3.0714,-3.0754,-3.0825,-3.0835,-3.0871,-3.09,-3.0927,-3.0952,-3.0934,-3.0936,-3.0935,-3.1006,-3.0998,-3.1002,-3.0965,-3.0966,-3.0967,-3.1001,0,-3.032,-3.0403,-3.0443,-3.0508,-3.0553,-3.0587,-3.0628,-3.0675,-3.0709,-3.0753,-3.0792,-3.0841,-3.085,-3.0872,-3.0901,-3.0942,-3.0966,-3.0941,-3.1003,-3.1004,-3.0986,-3.1009,-3.1,-3.103,-3.1006,-3.1007,-3.1008,0,-3.0365,-3.0414,-3.0484,-3.0548,-3.0568,-3.0603,-3.066,-3.0701,-3.0756,-3.0779,-3.082,-3.0848,-3.0898,-3.0897,-3.0966,-3.0948,-3.0976,-3.1,-3.1002,-3.1009,-3.1006,-3.1016,-3.104,-3.1044,-3.1016,-3.1015,-3.1015,0,-3.0358,-3.0442,-3.0494,-3.0521,-3.0597,-3.0621,-3.0654,-3.0708,-3.0741,-3.0791,-3.0813,-3.0868,-3.0898,-3.0941,-3.0984,-3.0979,-3.1049,-3.1052,-3.107,-3.1069,-3.1082,-3.1081,-3.1111,-3.1101,-3.1101,-3.1101,-3.1101,0,-3.0385,-3.0427,-3.0492,-3.0524,-3.0571,-3.0616,-3.0662,-3.0698,-3.0746,-3.0786,-3.082,-3.0857,-3.0911,-3.0955,-3.0989,-3.1041,-3.1055,-3.1075,-3.1084,-3.1072,-3.1069,-3.109,-3.1089,-3.1102,-3.1102,-3.1102,-3.1102,0,-3.0385,-3.043,-3.049,-3.0557,-3.0575,-3.0607,-3.0665,-3.0698,-3.0734,-3.0784,-3.0799,-3.0856,-3.091,-3.0957,-3.1028,-3.1051,-3.1104,-3.1115,-3.1085,-3.1089,-3.1105,-3.1102,-3.1149,-3.1157,-3.1142,-3.1142,-3.1142,0,-3.0399,-3.0431,-3.0502,-3.0531,-3.0563,-3.061,-3.0643,-3.0689,-3.0723,-3.0788,-3.0813,-3.0869,-3.0916,-3.1,-3.1048,-3.1102,-3.1114,-3.1127,-3.1123,-3.111,-3.1114,-3.1111,-3.1114,-3.1126,-3.1126,-3.1126,-3.1126,0,-3.0419,-3.044,-3.0487,-3.0541,-3.058,-3.0625,-3.0671,-3.0693,-3.0749,-3.0785,-3.0839,-3.0876,-3.0948,-3.1003,-3.1063,-3.1098,-3.1121,-3.1127,-3.1134,-3.1122,-3.1103,-3.1113,-3.1084,-3.1126,-3.1126,-3.1126,-3.1126,-3.1126,-3.0426,-3.0456,-3.0511,-3.0561,-3.0601,-3.0644,-3.0677,-3.0718,-3.0764,-3.0826,-3.0851,-3.0907,-3.0961,-3.1044,-3.1078,-3.1123,-3.1127,-3.1137,-3.114,-3.1142,-3.1139,-3.1097,-3.1134,-3.1134,-3.1134,-3.1135,-3.1135,0,-3.0448,-3.0484,-3.053,-3.0594,-3.0634,-3.0652,-3.0704,-3.0737,-3.0785,-3.0833,-3.0879,-3.0942,-3.0995,-3.1048,-3.1104,-3.113,-3.1142,-3.1143,-3.1141,-3.1149,-3.1133,-3.1121,-3.1132,-3.1132,-3.1132,-3.1132,-3.1132,-3.1132,-3.0463,-3.0515,-3.0542,-3.0614,-3.0651,-3.0705,-3.0733,-3.0773,-3.0812,-3.088,-3.0925,-3.0958,-3.1009,-3.1069,-3.1119,-3.1133,-3.1152,-3.115,-3.1167,-3.1151,-3.115,-3.115,-3.1139,-3.1154,-3.1154,-3.118,-3.118,-3.118]},{"header":{"parameterUnit":"m.s-1","parameterCategory":1,"la1":30.2991,"la2":30.254,"lo1":-89.0895,"lo2":-89.0444,"dy":0.0017,"dx":0.0017,"nx":28,"ny":28,"refTime":"2026-01-08T03:00:00:Z","depth":0,"parameterNumber":3,"parameterNumberName":"V-component_of_WINDS"},"data":[0,0,0,0,0,0,0,0,0,0,0,0,0,0,0,0,0,0,0,0,0,0,0,0,0,0,0,0,0,0,0,0,0,0,0,0,0,0,0,0,0,0,0,0,0,0,0,0,0,0,0,0,0,0,0,0,0,0,4.8172,4.8173,0,4.8264,4.8265,4.8266,4.8243,4.8241,4.8239,4.8238,4.8336,4.834,4.8345,0,0,0,0,0,0,0,0,0,0,0,0,0,4.7984,4.7988,4.8172,4.8173,4.8174,4.8264,4.8265,4.8266,4.8243,4.8241,4.8239,4.8237,4.8335,4.834,4.8345,0,0,0,0,0,0,0,0,0,0,0,0,0,4.807,4.7989,4.8172,4.8174,4.8175,4.8264,4.8265,4.8267,4.8244,4.8241,4.8238,4.8236,4.8333,4.8339,4.8346,4.844,0,0,4.8366,4.8368,0,0,0,0,0,0,0,0,4.8065,4.8077,4.8172,4.8174,4.8175,4.8239,4.8235,4.8325,4.8244,4.8218,4.8237,4.8234,4.8306,4.8315,4.8338,4.8445,4.8449,4.8366,4.837,4.8373,4.8375,0,0,0,0,0,0,0,4.8059,4.8073,4.8209,4.8174,4.8175,4.8172,4.8181,4.8252,4.8276,4.822,4.8218,4.8229,4.8307,4.8332,4.834,4.845,4.8366,4.8372,4.8376,4.8378,4.8645,4.8648,0,0,0,0,0,0,4.8051,4.8068,4.8206,4.8211,4.8112,4.8178,4.8188,4.8221,4.8275,4.8281,4.8231,4.8228,4.8322,4.8333,4.8344,4.8461,4.8373,4.8379,4.8383,4.8641,4.8645,4.8649,0,0,0,0,0,0,4.8047,4.8064,4.8202,4.8139,4.8157,4.8184,4.8222,4.8225,4.825,4.8284,4.8289,4.8252,4.8321,4.8335,4.8417,4.8464,4.8382,4.8388,4.8638,4.8643,4.8647,4.8695,0,0,0,0,0,0,4.8042,4.8063,4.8097,4.814,4.816,4.8272,4.8224,4.8228,4.8261,4.8257,4.8305,4.8311,4.832,4.8408,4.8424,4.8472,4.8393,4.8634,4.864,4.8646,4.869,4.8701,4.8711,0,0,0,0,0,4.8036,4.8107,4.8099,4.8115,4.8203,4.8274,4.8286,4.8293,4.8264,4.8301,4.8323,4.8309,4.8456,4.8416,4.8434,4.8485,4.8631,4.8638,4.8645,4.8685,4.8699,4.8711,0,0,0,0,0,0,4.8069,4.8112,4.8104,4.819,4.8229,4.827,4.8316,4.8307,4.8356,4.835,4.8359,4.837,4.8456,4.8478,4.8433,4.8582,4.854,4.8551,4.8564,4.8577,4.8588,4.8582,4.8398,0,0,0,0,0,4.8086,4.8138,4.8174,4.8247,4.8267,4.8288,4.832,4.8322,4.8363,4.8379,4.8408,4.845,4.8506,4.8543,4.8596,4.8692,4.8705,4.8737,4.8747,4.8756,4.8766,4.8824,4.8839,4.8672,4.8672,4.8672,0,0,4.8122,4.8153,4.8185,4.8255,4.8285,4.8342,4.8302,4.8363,4.8406,4.8389,4.8469,4.8492,4.854,4.8631,4.8673,4.8653,4.8815,4.8765,4.8772,4.8777,4.8833,4.8849,4.8863,4.8677,4.8676,4.8676,0,0,4.8218,4.8245,4.8311,4.8342,4.8388,4.8402,4.8418,4.8462,4.8476,4.8557,4.8546,4.8599,4.8694,4.873,4.876,4.8874,4.8865,4.8891,4.8948,4.9004,4.9017,4.9029,4.9073,4.9089,4.8901,4.8901,4.8901,0,4.8258,4.8341,4.8346,4.8409,4.8442,4.8429,4.8498,4.8528,4.859,4.8614,4.8591,4.8713,4.8743,4.8845,4.8873,4.8897,4.8919,4.8886,4.9014,4.9026,4.9037,4.908,4.9096,4.8904,4.8904,4.8904,4.8903,0,4.839,4.8449,4.8497,4.8557,4.8595,4.866,4.8678,4.8717,4.8717,4.8735,4.882,4.8856,4.8919,4.8943,4.8943,4.9046,4.9033,4.9011,4.897,4.9056,4.9097,4.9113,4.8909,4.8908,4.8907,4.8906,0,0,4.8509,4.8572,4.859,4.8619,4.867,4.8717,4.8784,4.8844,4.8879,4.8922,4.8982,4.9064,4.9046,4.9081,4.9086,4.9135,4.9228,4.9108,4.911,4.9132,4.9349,4.9366,4.9385,4.9221,4.9224,4.9226,4.9346,0,4.8612,4.8728,4.8736,4.8842,4.8899,4.8889,4.8948,4.8987,4.9007,4.9059,4.9081,4.9141,4.9111,4.9132,4.918,4.9206,4.9272,4.9197,4.928,4.9283,4.9271,4.9405,4.9423,4.9534,4.9361,4.9364,4.9366,0,4.8748,4.8796,4.8908,4.8955,4.8979,4.9031,4.909,4.9139,4.9185,4.9196,4.9237,4.9236,4.9308,4.9263,4.9365,4.9315,4.9349,4.9368,4.9372,4.9382,4.9331,4.9422,4.9569,4.9587,4.939,4.9388,4.9386,0,4.8828,4.892,4.9,4.9025,4.9081,4.9119,4.9144,4.9188,4.9225,4.9276,4.9301,4.9361,4.9394,4.9442,4.9459,4.9423,4.9562,4.9517,4.9577,4.9577,4.9608,4.9606,4.9766,4.9625,4.9625,4.9625,4.9624,0,4.8944,4.9014,4.9038,4.9087,4.9167,4.9176,4.9256,4.9279,4.9319,4.9375,4.937,4.9423,4.944,4.9498,4.9512,4.9598,4.9612,4.9625,4.9629,4.9628,4.9626,4.9652,4.9646,4.9629,4.9628,4.9627,4.9626,0,4.9047,4.9065,4.9153,4.9199,4.9212,4.9269,4.931,4.936,4.9379,4.9451,4.9468,4.9499,4.9567,4.9588,4.967,4.9679,4.9781,4.9775,4.9765,4.9766,4.9826,4.9821,5.001,5.0037,4.9875,4.9877,4.9878,0,4.9121,4.9175,4.9227,4.9264,4.9291,4.935,4.9389,4.9401,4.9442,4.9501,4.9545,4.9612,4.9666,4.9776,4.9808,4.9871,4.987,4.9932,4.988,4.9878,4.9876,4.9873,4.9881,4.9942,4.9944,4.9945,4.9946,0,4.9252,4.926,4.9314,4.9373,4.9418,4.9465,4.9511,4.9542,4.9562,4.9609,4.9678,4.972,4.9805,4.9873,4.9939,4.9968,4.9963,4.9962,4.998,4.9981,4.9974,4.9983,4.9795,4.9958,4.9957,4.9956,4.9956,4.9955,4.9346,4.9395,4.944,4.9502,4.9538,4.9581,4.9631,4.9657,4.9714,4.9783,4.9788,4.9864,4.9914,5.0001,5.0034,5.0096,5.0078,5.0103,5.011,5.0117,5.0124,4.9962,5.0107,5.0107,5.0107,5.0106,5.0106,0,4.948,4.9509,4.9566,4.963,4.968,4.9668,4.9719,4.9763,4.9829,4.9875,4.9929,5.0011,5.0078,5.0115,5.0183,5.0226,5.0226,5.0244,5.0242,5.025,5.0133,5.0113,5.0243,5.0243,5.0243,5.0243,5.0243,5.0243,4.9556,4.9639,4.9652,4.9755,4.9784,4.9858,4.9889,4.993,4.9967,5.0058,5.0114,5.0137,5.0181,5.0253,5.0315,5.0325,5.0352,5.0372,5.0381,5.0272,5.0258,5.0244,5.0225,5.0377,5.0377,5.0493,5.0494,5.0495]}]]